[[{"header":{"parameterUnit":"m.s-1","parameterCategory":2,"la1":30.2991,"la2":30.254,"lo1":-89.0895,"lo2":-89.0444,"dy":0.0017,"dx":0.0017,"nx":28,"ny":28,"refTime":"2025-11-23T03:00:00:Z","depth":"0","parameterNumber":2,"parameterNumberName":"U-component_of_CURRENTS"},"data":[0,0,0,0,0,0,0,0,0,0,0,0,0,0,0,0,0,0,0,0,0,0,0,0,0,0,0,0,0,0,0,0,0,0,0,0,0,0,0,0,0,0,0,0,0,0,0,0,0,0,0,0,0,0,0,0,0,0,-0.2902,-0.2903,0,-0.2934,-0.2934,-0.2934,-0.2917,-0.2916,-0.2915,-0.2915,-0.2876,-0.2876,-0.2875,0,0,0,0,0,0,0,0,0,0,0,0,0,-0.2825,-0.2826,-0.2902,-0.2903,-0.2904,-0.2934,-0.2934,-0.2934,-0.2917,-0.2916,-0.2915,-0.2914,-0.2876,-0.2876,-0.2875,0,0,0,0,0,0,0,0,0,0,0,0,0,-0.2855,-0.2826,-0.2902,-0.29,-0.2901,-0.2934,-0.2934,-0.2934,-0.2917,-0.2916,-0.2915,-0.2914,-0.2876,-0.2876,-0.2875,-0.289,0,0,-0.2873,-0.2873,0,0,0,0,0,0,0,0,-0.2853,-0.2858,-0.29,-0.2901,-0.2901,-0.2922,-0.2892,-0.2917,-0.2917,-0.2908,-0.2915,-0.2914,-0.2887,-0.2886,-0.2891,-0.2889,-0.2887,-0.2873,-0.2873,-0.2872,-0.2872,0,0,0,0,0,0,0,-0.2851,-0.2856,-0.2912,-0.2901,-0.2901,-0.2897,-0.29,-0.2897,-0.29,-0.2909,-0.2908,-0.2916,-0.2887,-0.2892,-0.289,-0.2886,-0.2873,-0.2873,-0.2872,-0.2872,-0.2896,-0.2897,0,0,0,0,0,0,-0.2854,-0.2854,-0.2911,-0.2913,-0.2877,-0.2899,-0.2903,-0.2914,-0.2901,-0.29,-0.2917,-0.2915,-0.2894,-0.2891,-0.2889,-0.2904,-0.2872,-0.2872,-0.2871,-0.2895,-0.2896,-0.2897,0,0,0,0,0,0,-0.2852,-0.2859,-0.291,-0.2886,-0.2892,-0.2902,-0.2915,-0.2916,-0.2917,-0.2908,-0.2904,-0.2918,-0.2893,-0.289,-0.2892,-0.2902,-0.2872,-0.2871,-0.2894,-0.2895,-0.2897,-0.2936,0,0,0,0,0,0,-0.285,-0.2858,-0.2861,-0.2887,-0.2894,-0.2933,-0.2916,-0.2917,-0.2925,-0.2923,-0.2908,-0.2904,-0.2892,-0.2894,-0.2892,-0.2901,-0.287,-0.2893,-0.2895,-0.2896,-0.2933,-0.2938,-0.2943,0,0,0,0,0,-0.2847,-0.2858,-0.2861,-0.2868,-0.29,-0.2934,-0.2937,-0.2938,-0.2926,-0.2934,-0.2926,-0.2904,-0.2904,-0.2894,-0.2892,-0.2901,-0.2892,-0.2894,-0.2896,-0.2931,-0.2937,-0.2943,0,0,0,0,0,0,-0.2821,-0.2858,-0.2862,-0.2882,-0.2908,-0.2932,-0.2936,-0.2941,-0.2942,-0.2934,-0.2918,-0.2914,-0.2921,-0.291,-0.2899,-0.2915,-0.2894,-0.2896,-0.2921,-0.2927,-0.2932,-0.293,-0.287,0,0,0,0,0,-0.282,-0.2835,-0.2873,-0.2885,-0.29,-0.2918,-0.2928,-0.2937,-0.2946,-0.2945,-0.2937,-0.293,-0.2932,-0.2927,-0.2927,-0.2935,-0.2905,-0.294,-0.2945,-0.2949,-0.2947,-0.2922,-0.2924,-0.2905,-0.2905,-0.2905,0,0,-0.2809,-0.2833,-0.2839,-0.288,-0.2895,-0.2927,-0.292,-0.2943,-0.2964,-0.294,-0.2952,-0.2947,-0.2939,-0.2951,-0.2953,-0.2939,-0.2938,-0.2952,-0.2955,-0.2951,-0.2925,-0.2926,-0.2928,-0.2907,-0.2906,-0.2906,0,0,-0.2806,-0.2822,-0.2838,-0.2869,-0.2905,-0.2925,-0.2934,-0.2965,-0.297,-0.2991,-0.298,-0.2981,-0.2982,-0.2982,-0.2981,-0.3013,-0.2967,-0.3012,-0.303,-0.3006,-0.3007,-0.3008,-0.2963,-0.2959,-0.3011,-0.3011,-0.3011,0,-0.279,-0.2821,-0.2847,-0.288,-0.2902,-0.2927,-0.2955,-0.2977,-0.3002,-0.3006,-0.2997,-0.3003,-0.2998,-0.3009,-0.3024,-0.3022,-0.2992,-0.3007,-0.3011,-0.3011,-0.3011,-0.2965,-0.296,-0.3013,-0.3013,-0.3013,-0.3013,0,-0.2808,-0.2835,-0.2849,-0.2899,-0.2928,-0.2955,-0.2998,-0.3019,-0.3025,-0.3039,-0.305,-0.3047,-0.3045,-0.3051,-0.3048,-0.3051,-0.3024,-0.3021,-0.2992,-0.3014,-0.2965,-0.2959,-0.3016,-0.3016,-0.3015,-0.3014,0,0,-0.2757,-0.2844,-0.2845,-0.2873,-0.294,-0.2963,-0.3007,-0.3046,-0.3062,-0.3078,-0.3086,-0.31,-0.3088,-0.3087,-0.3081,-0.3068,-0.3044,-0.3046,-0.3044,-0.2994,-0.2971,-0.2873,-0.2857,-0.3038,-0.3037,-0.3037,-0.2933,0,-0.2757,-0.2816,-0.2862,-0.291,-0.2942,-0.299,-0.3029,-0.3068,-0.3088,-0.3105,-0.3104,-0.311,-0.3106,-0.3101,-0.309,-0.3064,-0.3032,-0.3071,-0.2963,-0.2959,-0.2863,-0.2848,-0.2731,-0.2621,-0.2927,-0.2926,-0.2925,0,-0.2749,-0.2793,-0.2842,-0.2919,-0.2936,-0.2969,-0.302,-0.3062,-0.3103,-0.3117,-0.3123,-0.3124,-0.312,-0.3106,-0.3053,-0.3076,-0.3022,-0.2993,-0.2988,-0.2878,-0.2851,-0.2651,-0.2599,-0.2589,-0.2916,-0.2917,-0.2917,0,-0.2685,-0.2771,-0.2804,-0.2833,-0.2928,-0.2948,-0.2991,-0.3049,-0.3074,-0.3114,-0.312,-0.3124,-0.3107,-0.3068,-0.3011,-0.303,-0.2931,-0.2946,-0.2799,-0.2791,-0.2659,-0.2639,-0.2575,-0.2883,-0.2883,-0.2883,-0.2883,0,-0.2658,-0.268,-0.2776,-0.2794,-0.2826,-0.2908,-0.2938,-0.2987,-0.3044,-0.3054,-0.3107,-0.3096,-0.3095,-0.3046,-0.3,-0.2869,-0.2913,-0.2786,-0.2754,-0.2668,-0.2651,-0.2611,-0.2652,-0.2879,-0.288,-0.2881,-0.2881,0,-0.257,-0.2642,-0.268,-0.2772,-0.2796,-0.2811,-0.2895,-0.2913,-0.2989,-0.3001,-0.3009,-0.3056,-0.2991,-0.2961,-0.2884,-0.2826,-0.2679,-0.267,-0.2558,-0.2514,-0.2372,-0.242,-0.2318,-0.2249,-0.2494,-0.2491,-0.2488,0,-0.2527,-0.2539,-0.2628,-0.2638,-0.2672,-0.2718,-0.2742,-0.2853,-0.2876,-0.2954,-0.2939,-0.2919,-0.2855,-0.2721,-0.262,-0.2493,-0.2527,-0.2329,-0.2345,-0.2329,-0.236,-0.2408,-0.2362,-0.2184,-0.2179,-0.2175,-0.2171,0,-0.2421,-0.2453,-0.2481,-0.2512,-0.2537,-0.2574,-0.2622,-0.2642,-0.2755,-0.2773,-0.2763,-0.2725,-0.261,-0.2441,-0.2309,-0.2228,-0.2282,-0.224,-0.2255,-0.2129,-0.2144,-0.2073,-0.2291,-0.2136,-0.2139,-0.2142,-0.2144,-0.2145,-0.231,-0.2302,-0.2338,-0.2349,-0.2381,-0.2391,-0.2361,-0.2428,-0.2442,-0.2418,-0.2523,-0.2404,-0.2332,-0.2119,-0.2031,-0.1885,-0.1977,-0.185,-0.1911,-0.1963,-0.1889,-0.2015,-0.1813,-0.1814,-0.1816,-0.1817,-0.1818,0,-0.2152,-0.216,-0.2168,-0.218,-0.2144,-0.222,-0.2236,-0.2166,-0.2108,-0.2099,-0.2066,-0.2015,-0.1876,-0.1817,-0.1702,-0.1607,-0.1579,-0.1591,-0.1649,-0.1618,-0.1732,-0.1711,-0.1439,-0.1439,-0.1439,-0.1439,-0.1439,-0.1439,-0.2068,-0.2017,-0.2027,-0.1924,-0.1925,-0.182,-0.1784,-0.1693,-0.1624,-0.1477,-0.1434,-0.1398,-0.153,-0.1739,-0.1628,-0.1532,-0.1521,-0.1459,-0.151,-0.1631,-0.1661,-0.1691,-0.1679,-0.1405,-0.1405,-0.1318,-0.1318,-0.1318]},{"header":{"parameterUnit":"m.s-1","parameterCategory":2,"la1":30.2991,"la2":30.254,"lo1":-89.0895,"lo2":-89.0444,"dy":0.0017,"dx":0.0017,"nx":28,"ny":28,"refTime":"2025-11-23T03:00:00:Z","depth":"0","parameterNumber":3,"parameterNumberName":"V-component_of_CURRENTS"},"data":[0,0,0,0,0,0,0,0,0,0,0,0,0,0,0,0,0,0,0,0,0,0,0,0,0,0,0,0,0,0,0,0,0,0,0,0,0,0,0,0,0,0,0,0,0,0,0,0,0,0,0,0,0,0,0,0,0,0,-0.0282,-0.0281,0,-0.0173,-0.0171,-0.017,-0.0091,-0.009,-0.0089,-0.0089,0.006,0.0063,0.0066,0,0,0,0,0,0,0,0,0,0,0,0,0,-0.0371,-0.037,-0.0282,-0.028,-0.0279,-0.0173,-0.0171,-0.017,-0.0091,-0.009,-0.0089,-0.0089,0.0059,0.0063,0.0067,0,0,0,0,0,0,0,0,0,0,0,0,0,-0.0303,-0.0369,-0.0282,-0.0228,-0.0222,-0.0173,-0.0171,-0.0169,-0.0091,-0.009,-0.0089,-0.0088,0.0057,0.0062,0.0067,0.0084,0,0,0.0083,0.0086,0,0,0,0,0,0,0,0,-0.0307,-0.0299,-0.0237,-0.0232,-0.0225,-0.0146,-0.0148,-0.0083,-0.0091,-0.0139,-0.0089,-0.0088,-0.0007,0.0003,0.0024,0.0091,0.0097,0.0084,0.0087,0.0089,0.0091,0,0,0,0,0,0,0,-0.0311,-0.0303,-0.0237,-0.0236,-0.0229,-0.0192,-0.0182,-0.0135,-0.0077,-0.0135,-0.0129,-0.012,-0.0003,0.0019,0.0028,0.0099,0.0084,0.0088,0.0091,0.0093,0.0213,0.0213,0,0,0,0,0,0,-0.0332,-0.0308,-0.024,-0.0234,-0.0267,-0.0192,-0.018,-0.0171,-0.0078,-0.0064,-0.0121,-0.0117,0.0009,0.0022,0.0034,0.0065,0.0089,0.0094,0.0097,0.0213,0.0213,0.0213,0,0,0,0,0,0,-0.0334,-0.0327,-0.0245,-0.027,-0.0257,-0.0192,-0.0181,-0.0169,-0.0146,-0.0068,-0.0053,-0.0111,0.0011,0.0026,0.0074,0.0071,0.0096,0.0101,0.0213,0.0213,0.0213,0.0123,0,0,0,0,0,0,-0.0337,-0.0328,-0.0331,-0.0271,-0.0256,-0.0226,-0.0182,-0.0168,-0.0143,-0.0136,-0.0054,-0.004,0.0012,0.0066,0.008,0.0079,0.0105,0.0212,0.0213,0.0213,0.0126,0.012,0.0115,0,0,0,0,0,-0.0341,-0.0351,-0.0332,-0.0324,-0.0261,-0.0227,-0.0216,-0.0165,-0.0143,-0.014,-0.0081,-0.0042,0.0077,0.007,0.0086,0.0086,0.0212,0.0213,0.0213,0.0129,0.0121,0.0115,0,0,0,0,0,0,-0.0391,-0.0342,-0.032,-0.0314,-0.0278,-0.0214,-0.0208,-0.0174,-0.0125,-0.0117,-0.0042,-0.0024,0.0017,0.0064,0.0055,0.0122,0.0151,0.0155,0.0082,0.0076,0.0071,0.0051,0.0109,0,0,0,0,0,-0.0405,-0.0399,-0.0346,-0.0343,-0.0329,-0.0271,-0.0251,-0.0218,-0.0166,-0.0144,-0.0088,-0.0025,0.0029,0.006,0.0112,0.0147,0.0201,0.0159,0.0153,0.0148,0.0144,0.0221,0.0221,0.0213,0.0213,0.0213,0,0,-0.0423,-0.0397,-0.0392,-0.0354,-0.0321,-0.031,-0.0257,-0.0234,-0.022,-0.0136,-0.0103,-0.0045,0.0033,0.0073,0.0096,0.0113,0.018,0.0149,0.0143,0.0142,0.0221,0.0222,0.0222,0.0213,0.0213,0.0213,0,0,-0.0464,-0.0435,-0.0446,-0.0422,-0.0384,-0.0345,-0.0344,-0.0286,-0.0254,-0.0217,-0.0151,-0.0096,-0.002,0.0039,0.0079,0.0075,0.0145,0.009,0.0052,0.0125,0.0127,0.0128,0.0196,0.0204,0.0091,0.0091,0.0091,0,-0.049,-0.0493,-0.0444,-0.0451,-0.0438,-0.0367,-0.0377,-0.0335,-0.0268,-0.0241,-0.0219,-0.0094,-0.0034,0.0032,0.003,0.0063,0.0112,0.0066,0.0117,0.012,0.0123,0.0192,0.0203,0.0087,0.0087,0.0088,0.0088,0,-0.0537,-0.0539,-0.0545,-0.0527,-0.0507,-0.0503,-0.0444,-0.0417,-0.037,-0.0318,-0.0251,-0.0163,-0.0086,-0.0059,-0.0016,0.0037,0.0068,0.0096,0.0128,0.0118,0.0192,0.0205,0.0081,0.0082,0.0083,0.0085,0,0,-0.0591,-0.0582,-0.0584,-0.0592,-0.0548,-0.0537,-0.0513,-0.0464,-0.044,-0.0367,-0.0324,-0.0232,-0.0176,-0.0127,-0.0059,0.0004,0.0067,0.0048,0.0054,0.0105,0.0227,0.0282,0.0302,0.0102,0.0103,0.0105,0.0268,0,-0.0642,-0.0683,-0.0652,-0.0678,-0.0693,-0.0625,-0.0608,-0.0552,-0.0485,-0.0426,-0.0318,-0.0254,-0.0202,-0.0164,-0.0095,0.0032,0.0096,0.002,0.0238,0.0245,0.0287,0.0317,0.0382,0.0535,0.028,0.0282,0.0284,0,-0.0697,-0.0718,-0.0762,-0.0759,-0.0756,-0.0754,-0.0706,-0.0678,-0.0571,-0.0517,-0.0426,-0.0334,-0.0223,-0.0184,0.0021,-0.0031,0.0082,0.0178,0.0187,0.0278,0.0323,0.0507,0.0569,0.0748,0.0304,0.0302,0.0301,0,-0.0769,-0.0789,-0.0831,-0.0831,-0.0814,-0.0813,-0.0791,-0.0709,-0.0678,-0.0568,-0.0526,-0.0378,-0.0291,-0.014,0.0061,0.0042,0.0291,0.0299,0.0455,0.0461,0.0581,0.0594,0.0835,0.0435,0.0435,0.0434,0.0434,0,-0.0838,-0.0867,-0.0871,-0.0896,-0.0932,-0.0888,-0.0891,-0.0842,-0.0759,-0.071,-0.0582,-0.0499,-0.0277,-0.0103,0.0057,0.0308,0.0298,0.046,0.0513,0.0551,0.0559,0.0772,0.0825,0.044,0.0439,0.0438,0.0437,0,-0.091,-0.0912,-0.0963,-0.0969,-0.0972,-0.0997,-0.0971,-0.0961,-0.0877,-0.0806,-0.0772,-0.0569,-0.0333,-0.0104,0.0177,0.0318,0.0666,0.0624,0.0651,0.0704,0.0993,0.1036,0.1312,0.1433,0.0819,0.0821,0.0823,0,-0.095,-0.0986,-0.1029,-0.1063,-0.107,-0.1092,-0.11,-0.1031,-0.1007,-0.0836,-0.0802,-0.056,-0.0356,0.0072,0.0367,0.0678,0.0801,0.0902,0.0876,0.1036,0.1124,0.1145,0.1228,0.1005,0.1009,0.1011,0.1014,0,-0.1022,-0.1036,-0.1077,-0.1156,-0.1187,-0.1214,-0.1213,-0.1208,-0.1096,-0.0989,-0.0792,-0.0607,-0.0184,0.0224,0.0614,0.0798,0.1047,0.0966,0.1144,0.1302,0.1332,0.1465,0.086,0.1038,0.1036,0.1034,0.1033,0.1032,-0.1061,-0.1114,-0.117,-0.1236,-0.1279,-0.131,-0.1299,-0.1234,-0.1144,-0.0871,-0.0749,-0.0317,0.0124,0.0699,0.0894,0.1331,0.1264,0.1467,0.1511,0.1521,0.1631,0.1068,0.1289,0.1289,0.1288,0.1287,0.1286,0,-0.1102,-0.116,-0.1241,-0.1314,-0.1365,-0.1363,-0.1343,-0.1242,-0.1071,-0.0728,-0.0436,0.0229,0.0703,0.1126,0.1634,0.1868,0.1915,0.1985,0.2048,0.2111,0.1648,0.1648,0.1942,0.1942,0.1942,0.1942,0.1941,0.1941,-0.1124,-0.1208,-0.1255,-0.1354,-0.1398,-0.1371,-0.1332,-0.1107,-0.0828,-0.0238,0.029,0.0645,0.1149,0.1836,0.2312,0.2361,0.2565,0.2543,0.2644,0.2329,0.2284,0.224,0.2258,0.2675,0.2676,0.3118,0.3122,0.3126]}],[{"header":{"parameterUnit":"m.s-1","parameterCategory":2,"la1":30.2991,"la2":30.254,"lo1":-89.0895,"lo2":-89.0444,"dy":0.0017,"dx":0.0017,"nx":28,"ny":28,"refTime":"2025-11-23T03:00:00:Z","depth":"2","parameterNumber":2,"parameterNumberName":"U-component_of_CURRENTS"},"data":[0,0,0,0,0,0,0,0,0,0,0,0,0,0,0,0,0,0,0,0,0,0,0,0,0,0,0,0,0,0,0,0,0,0,0,0,0,0,0,0,0,0,0,0,0,0,0,0,0,0,0,0,0,0,0,0,0,0,-0.2644,-0.2645,0,-0.2681,-0.2681,-0.2682,-0.2669,-0.2668,-0.2667,-0.2667,-0.2652,-0.2652,-0.2652,0,0,0,0,0,0,0,0,0,0,0,0,0,-0.2568,-0.2569,-0.2644,-0.2645,-0.2645,-0.2681,-0.2681,-0.2682,-0.2669,-0.2668,-0.2667,-0.2667,-0.2652,-0.2652,-0.2652,0,0,0,0,0,0,0,0,0,0,0,0,0,-0.26,-0.2569,-0.2644,-0.2645,-0.2645,-0.2681,-0.2681,-0.2682,-0.2669,-0.2668,-0.2667,-0.2666,-0.2651,-0.2652,-0.2652,-0.2673,0,0,-0.2653,-0.2653,0,0,0,0,0,0,0,0,-0.2599,-0.2603,-0.2644,-0.2645,-0.2645,-0.2671,-0.2649,-0.2677,-0.2669,-0.2658,-0.2667,-0.2666,-0.2655,-0.2655,-0.2662,-0.2672,-0.2671,-0.2653,-0.2653,-0.2653,-0.2653,0,0,0,0,0,0,0,-0.2596,-0.2601,-0.2656,-0.2645,-0.2646,-0.2645,-0.2649,-0.2654,-0.2659,-0.2659,-0.2658,-0.2666,-0.2655,-0.2662,-0.2662,-0.2671,-0.2653,-0.2653,-0.2653,-0.2653,-0.27,-0.2701,0,0,0,0,0,0,-0.2597,-0.2599,-0.2655,-0.2658,-0.2622,-0.2648,-0.2651,-0.2662,-0.266,-0.266,-0.2667,-0.2665,-0.2662,-0.2661,-0.2661,-0.2689,-0.2653,-0.2653,-0.2654,-0.2699,-0.2701,-0.2702,0,0,0,0,0,0,-0.2595,-0.2602,-0.2654,-0.2631,-0.2637,-0.265,-0.2662,-0.2663,-0.267,-0.2667,-0.2665,-0.2672,-0.2661,-0.266,-0.2673,-0.2688,-0.2654,-0.2654,-0.2698,-0.27,-0.2701,-0.2743,0,0,0,0,0,0,-0.2593,-0.2601,-0.2606,-0.2631,-0.2639,-0.2679,-0.2664,-0.2665,-0.2677,-0.2676,-0.2671,-0.2669,-0.266,-0.2673,-0.2674,-0.2688,-0.2654,-0.2697,-0.2699,-0.2701,-0.274,-0.2746,-0.2751,0,0,0,0,0,-0.259,-0.2602,-0.2606,-0.2613,-0.2647,-0.268,-0.2684,-0.2688,-0.2678,-0.2688,-0.2687,-0.2669,-0.2686,-0.2675,-0.2675,-0.2689,-0.2696,-0.2698,-0.2701,-0.2738,-0.2745,-0.275,0,0,0,0,0,0,-0.2568,-0.2603,-0.2608,-0.2628,-0.2654,-0.2678,-0.2685,-0.2692,-0.2701,-0.2695,-0.2685,-0.2684,-0.2701,-0.2693,-0.268,-0.271,-0.2687,-0.269,-0.2715,-0.2722,-0.2727,-0.2722,-0.2654,0,0,0,0,0,-0.2568,-0.2584,-0.262,-0.2634,-0.2648,-0.2668,-0.268,-0.269,-0.2703,-0.2705,-0.2705,-0.2705,-0.2714,-0.2715,-0.272,-0.2738,-0.2711,-0.2747,-0.2752,-0.2757,-0.2754,-0.2737,-0.2739,-0.271,-0.271,-0.271,0,0,-0.256,-0.2583,-0.259,-0.263,-0.2646,-0.2678,-0.2672,-0.2697,-0.2721,-0.2703,-0.2725,-0.2725,-0.2724,-0.2744,-0.275,-0.2736,-0.275,-0.276,-0.2763,-0.2758,-0.2739,-0.2742,-0.2744,-0.2711,-0.2711,-0.2711,0,0,-0.256,-0.2577,-0.2594,-0.2624,-0.2661,-0.2681,-0.2691,-0.2725,-0.2733,-0.2763,-0.2755,-0.2764,-0.2777,-0.278,-0.2782,-0.282,-0.278,-0.2823,-0.2842,-0.2826,-0.2828,-0.2829,-0.279,-0.2787,-0.2823,-0.2823,-0.2823,0,-0.255,-0.258,-0.2604,-0.2636,-0.2658,-0.2685,-0.2714,-0.2738,-0.2771,-0.2779,-0.2773,-0.2795,-0.2795,-0.2815,-0.283,-0.2831,-0.2805,-0.2818,-0.2831,-0.2832,-0.2832,-0.2792,-0.2789,-0.2825,-0.2825,-0.2824,-0.2824,0,-0.2569,-0.2597,-0.261,-0.266,-0.2689,-0.2718,-0.2761,-0.2787,-0.28,-0.2817,-0.284,-0.2844,-0.2851,-0.286,-0.2857,-0.2869,-0.2843,-0.284,-0.2812,-0.2838,-0.2794,-0.279,-0.2828,-0.2827,-0.2827,-0.2826,0,0,-0.2527,-0.2608,-0.261,-0.2638,-0.2703,-0.2727,-0.2775,-0.2818,-0.284,-0.2865,-0.2881,-0.2905,-0.2898,-0.29,-0.2898,-0.289,-0.2875,-0.2869,-0.2868,-0.2824,-0.2818,-0.2722,-0.2708,-0.2872,-0.2872,-0.2872,-0.2782,0,-0.253,-0.2587,-0.2629,-0.268,-0.2712,-0.276,-0.2802,-0.2845,-0.2872,-0.2898,-0.2904,-0.292,-0.2917,-0.2919,-0.2913,-0.2891,-0.2867,-0.2898,-0.2805,-0.2802,-0.2708,-0.2701,-0.2512,-0.241,-0.2777,-0.2777,-0.2776,0,-0.2525,-0.2567,-0.2617,-0.2692,-0.2709,-0.2745,-0.2802,-0.2846,-0.2896,-0.2915,-0.2932,-0.2938,-0.2943,-0.2931,-0.2891,-0.2909,-0.2863,-0.2838,-0.2834,-0.2725,-0.2698,-0.2446,-0.2388,-0.2768,-0.2769,-0.277,-0.277,0,-0.2469,-0.2552,-0.2587,-0.2614,-0.2707,-0.2731,-0.2776,-0.2838,-0.2868,-0.2918,-0.293,-0.2944,-0.2937,-0.2905,-0.2857,-0.2873,-0.2792,-0.2804,-0.2668,-0.266,-0.247,-0.2445,-0.2755,-0.2755,-0.2755,-0.2756,-0.2756,0,-0.2447,-0.2472,-0.2563,-0.2582,-0.2618,-0.2697,-0.2735,-0.2786,-0.2848,-0.2865,-0.2923,-0.292,-0.2929,-0.289,-0.285,-0.2732,-0.2778,-0.2657,-0.2629,-0.2479,-0.2457,-0.2751,-0.2752,-0.2752,-0.2753,-0.2754,-0.2754,0,-0.237,-0.2437,-0.2477,-0.2567,-0.2592,-0.2612,-0.2698,-0.2721,-0.2801,-0.2822,-0.2834,-0.2887,-0.2833,-0.2813,-0.275,-0.2698,-0.2617,-0.2558,-0.2371,-0.2322,-0.2497,-0.2502,-0.2402,-0.2397,-0.2394,-0.2391,-0.2388,0,-0.2333,-0.2347,-0.2434,-0.2447,-0.2482,-0.2532,-0.2559,-0.2669,-0.2696,-0.2779,-0.277,-0.2761,-0.2701,-0.2585,-0.249,-0.2374,-0.2484,-0.2158,-0.2159,-0.2478,-0.2461,-0.2471,-0.2479,-0.1918,-0.1912,-0.1907,-0.1903,0,-0.2243,-0.2274,-0.2303,-0.2335,-0.2364,-0.2402,-0.2455,-0.2473,-0.2586,-0.2606,-0.2599,-0.256,-0.2458,-0.2257,-0.214,-0.206,-0.2171,-0.2051,-0.2413,-0.2048,-0.2017,-0.2003,-0.2028,-0.1858,-0.1863,-0.1866,-0.1869,-0.187,-0.2149,-0.2143,-0.2178,-0.2191,-0.2225,-0.2234,-0.2206,-0.2272,-0.2284,-0.2268,-0.2351,-0.2224,-0.2186,-0.1887,-0.177,-0.1689,-0.184,-0.1781,-0.1799,-0.1821,-0.1792,-0.1758,-0.1543,-0.1545,-0.1548,-0.155,-0.1551,0,-0.2015,-0.2021,-0.2028,-0.2039,-0.2006,-0.208,-0.2094,-0.2029,-0.1969,-0.1994,-0.1946,-0.172,-0.1572,-0.1541,-0.133,-0.129,-0.1294,-0.1254,-0.127,-0.1313,-0.1353,-0.1303,-0.0922,-0.0921,-0.0919,-0.0918,0,0,-0.1944,-0.1897,-0.19,-0.1803,-0.1803,-0.1698,-0.1662,-0.1594,-0.1564,-0.1461,-0.1401,-0.1481,-0.149,-0.1214,-0.1141,-0.0997,-0.1147,-0.0943,-0.1445,-0.1506,-0.1544,-0.1648,-0.1619,0,0,0,0,0]},{"header":{"parameterUnit":"m.s-1","parameterCategory":2,"la1":30.2991,"la2":30.254,"lo1":-89.0895,"lo2":-89.0444,"dy":0.0017,"dx":0.0017,"nx":28,"ny":28,"refTime":"2025-11-23T03:00:00:Z","depth":"2","parameterNumber":3,"parameterNumberName":"V-component_of_CURRENTS"},"data":[0,0,0,0,0,0,0,0,0,0,0,0,0,0,0,0,0,0,0,0,0,0,0,0,0,0,0,0,0,0,0,0,0,0,0,0,0,0,0,0,0,0,0,0,0,0,0,0,0,0,0,0,0,0,0,0,0,0,-0.0307,-0.0306,0,-0.0211,-0.021,-0.0208,-0.014,-0.0139,-0.0139,-0.0138,-0.0004,-0.0001,0.0002,0,0,0,0,0,0,0,0,0,0,0,0,0,-0.0383,-0.0382,-0.0307,-0.0306,-0.0305,-0.0211,-0.021,-0.0208,-0.014,-0.0139,-0.0139,-0.0138,-0.0005,-0.0002,0.0002,0,0,0,0,0,0,0,0,0,0,0,0,0,-0.0323,-0.0382,-0.0307,-0.0261,-0.0256,-0.0211,-0.021,-0.0208,-0.014,-0.0139,-0.0139,-0.0138,-0.0007,-0.0002,0.0003,0.002,0,0,0.0017,0.0019,0,0,0,0,0,0,0,0,-0.0327,-0.0321,-0.0269,-0.0264,-0.0258,-0.0188,-0.0187,-0.013,-0.014,-0.0182,-0.0138,-0.0138,-0.0064,-0.0054,-0.0036,0.0026,0.0032,0.0018,0.0021,0.0023,0.0024,0,0,0,0,0,0,0,-0.0331,-0.0324,-0.0267,-0.0268,-0.0261,-0.0228,-0.0219,-0.0176,-0.0126,-0.0178,-0.0174,-0.0166,-0.006,-0.0041,-0.0032,0.0034,0.0018,0.0022,0.0025,0.0027,0.0137,0.0137,0,0,0,0,0,0,-0.035,-0.0328,-0.027,-0.0265,-0.0294,-0.0228,-0.0218,-0.021,-0.0127,-0.0114,-0.0166,-0.0163,-0.0049,-0.0038,-0.0027,0.0003,0.0023,0.0027,0.003,0.0137,0.0137,0.0137,0,0,0,0,0,0,-0.0352,-0.0345,-0.0274,-0.0295,-0.0284,-0.0228,-0.0219,-0.0208,-0.0188,-0.0118,-0.0105,-0.0157,-0.0048,-0.0034,0.001,0.0009,0.0029,0.0034,0.0137,0.0137,0.0137,0.0061,0,0,0,0,0,0,-0.0354,-0.0347,-0.0349,-0.0297,-0.0284,-0.0258,-0.0219,-0.0207,-0.0185,-0.0179,-0.0106,-0.0093,-0.0047,0.0002,0.0015,0.0016,0.0037,0.0137,0.0137,0.0137,0.0063,0.0058,0.0054,0,0,0,0,0,-0.0357,-0.0367,-0.035,-0.0343,-0.0289,-0.0258,-0.0249,-0.0205,-0.0185,-0.0183,-0.013,-0.0095,0.0012,0.0006,0.0021,0.0023,0.0137,0.0137,0.0137,0.0065,0.0059,0.0054,0,0,0,0,0,0,-0.0401,-0.0359,-0.034,-0.0336,-0.0304,-0.0248,-0.0242,-0.0212,-0.0168,-0.0162,-0.0095,-0.0078,-0.0041,0.0001,-0.0007,0.0056,0.0081,0.0084,0.0021,0.0016,0.0011,-0.0006,0.0041,0,0,0,0,0,-0.0414,-0.0409,-0.0363,-0.0361,-0.0349,-0.0297,-0.028,-0.025,-0.0205,-0.0185,-0.0134,-0.0078,-0.0029,-0.0,0.0046,0.008,0.0128,0.0092,0.0087,0.0083,0.0079,0.015,0.0151,0.0138,0.0138,0.0138,0,0,-0.043,-0.0407,-0.0404,-0.037,-0.0341,-0.0331,-0.0285,-0.0265,-0.0251,-0.0177,-0.0147,-0.0096,-0.0025,0.0013,0.0034,0.0049,0.0112,0.0083,0.0078,0.0078,0.015,0.0151,0.0153,0.0138,0.0138,0.0138,0,0,-0.0466,-0.0441,-0.045,-0.043,-0.0396,-0.0361,-0.0361,-0.0309,-0.0281,-0.0247,-0.0189,-0.0138,-0.007,-0.0015,0.0021,0.002,0.0081,0.0033,0.0001,0.0069,0.0071,0.0073,0.0131,0.0138,0.0035,0.0035,0.0034,0,-0.0488,-0.0491,-0.0449,-0.0454,-0.0443,-0.0381,-0.0388,-0.0351,-0.0292,-0.0267,-0.0249,-0.0135,-0.008,-0.0018,-0.002,0.0009,0.0053,0.0013,0.0062,0.0065,0.0069,0.0128,0.0137,0.0031,0.0031,0.0032,0.0032,0,-0.0528,-0.0531,-0.0536,-0.0519,-0.0501,-0.0498,-0.0445,-0.0421,-0.038,-0.0333,-0.0272,-0.0193,-0.0122,-0.0098,-0.0059,-0.0008,0.0017,0.0043,0.0071,0.0065,0.0128,0.0139,0.0026,0.0027,0.0028,0.0029,0,0,-0.0576,-0.0567,-0.0569,-0.0577,-0.0537,-0.0528,-0.0505,-0.0461,-0.0441,-0.0373,-0.0335,-0.0249,-0.0199,-0.0155,-0.0093,-0.0034,0.0024,0.0005,0.001,0.0053,0.0168,0.0198,0.0214,0.0057,0.0059,0.006,0.0201,0,-0.062,-0.0655,-0.0627,-0.065,-0.0663,-0.0603,-0.0587,-0.0537,-0.0479,-0.0427,-0.0328,-0.027,-0.0221,-0.0187,-0.0121,-0.001,0.0051,-0.0016,0.0176,0.0182,0.0202,0.0227,0.0197,0.0321,0.0212,0.0214,0.0216,0,-0.0667,-0.0685,-0.0723,-0.0721,-0.0719,-0.0717,-0.0676,-0.0652,-0.0557,-0.0509,-0.0426,-0.0343,-0.024,-0.0202,-0.0017,-0.0064,0.004,0.0126,0.0134,0.0196,0.0233,0.0313,0.0346,0.0235,0.0234,0.0232,0.0231,0,-0.0731,-0.0748,-0.0784,-0.0785,-0.077,-0.077,-0.0752,-0.068,-0.0654,-0.0556,-0.052,-0.0384,-0.0305,-0.0165,0.0014,0.0,0.0221,0.0231,0.0357,0.0361,0.0391,0.0394,0.0359,0.0359,0.0359,0.0359,0.0358,0,-0.0791,-0.0818,-0.0821,-0.0844,-0.0878,-0.0838,-0.0845,-0.0802,-0.073,-0.069,-0.057,-0.0498,-0.0293,-0.0138,0.0009,0.0224,0.0225,0.036,0.0404,0.0363,0.0362,0.0332,0.0326,0.0364,0.0363,0.0362,0.0361,0,-0.0856,-0.0857,-0.0902,-0.091,-0.0913,-0.0938,-0.092,-0.0914,-0.084,-0.0782,-0.0751,-0.0567,-0.0359,-0.0151,0.0103,0.0225,0.042,0.0495,0.0428,0.0462,0.0512,0.0502,0.0645,0.0648,0.065,0.0651,0.0653,0,-0.0892,-0.0923,-0.0964,-0.0997,-0.1004,-0.1029,-0.1039,-0.0979,-0.0961,-0.0814,-0.0785,-0.0572,-0.0397,-0.0022,0.023,0.0502,0.0496,0.062,0.0591,0.0515,0.0545,0.0531,0.0518,0.0603,0.0604,0.0605,0.0605,0,-0.0958,-0.0971,-0.1009,-0.1082,-0.1114,-0.1143,-0.1146,-0.1146,-0.105,-0.0961,-0.0797,-0.0639,-0.0279,0.0033,0.0372,0.0521,0.057,0.0643,0.0611,0.0525,0.0485,0.051,0.0497,0.0612,0.0611,0.0611,0.061,0.061,-0.0997,-0.1045,-0.1096,-0.1159,-0.1201,-0.1235,-0.1244,-0.1208,-0.1141,-0.0974,-0.0817,-0.0546,-0.0259,0.0235,0.0466,0.0669,0.0667,0.0716,0.0711,0.0705,0.0665,0.0629,0.0775,0.0776,0.0776,0.0776,0.0776,0,-0.1042,-0.1093,-0.1166,-0.1237,-0.1288,-0.1288,-0.1292,-0.1254,-0.1155,-0.0964,-0.0758,-0.0406,-0.0057,0.0225,0.0557,0.0757,0.0728,0.0777,0.0702,0.0695,0.069,0.0645,0.0753,0.0753,0.0753,0.0754,0,0,-0.1067,-0.1144,-0.1183,-0.1281,-0.1328,-0.1351,-0.1341,-0.1246,-0.1108,-0.0887,-0.067,-0.0394,-0.0044,0.0185,0.0435,0.0602,0.0589,0.0611,0.0612,0.0487,0.0478,0.0642,0.0565,0,0,0,0,0]}],[{"header":{"parameterUnit":"m.s-1","parameterCategory":2,"la1":30.2991,"la2":30.254,"lo1":-89.0895,"lo2":-89.0444,"dy":0.0017,"dx":0.0017,"nx":28,"ny":28,"refTime":"2025-11-23T03:00:00:Z","depth":"4","parameterNumber":2,"parameterNumberName":"U-component_of_CURRENTS"},"data":[0,0,0,0,0,0,0,0,0,0,0,0,0,0,0,0,0,0,0,0,0,0,0,0,0,0,0,0,0,0,0,0,0,0,0,0,0,0,0,0,0,0,0,0,0,0,0,0,0,0,0,0,0,0,0,0,0,0,-0.1874,-0.1875,0,-0.1951,-0.1952,-0.1953,-0.2002,-0.2003,-0.2003,-0.2004,-0.2075,-0.2076,-0.2077,0,0,0,0,0,0,0,0,0,0,0,0,0,-0.1771,-0.1772,-0.1874,-0.1875,-0.1876,-0.1951,-0.1952,-0.1953,-0.2002,-0.2003,-0.2003,-0.2004,-0.2074,-0.2076,-0.2077,0,0,0,0,0,0,0,0,0,0,0,0,0,-0.1827,-0.1773,-0.1874,-0.1911,-0.1915,-0.1951,-0.1952,-0.1953,-0.2002,-0.2003,-0.2004,-0.2004,-0.2073,-0.2076,-0.2078,-0.2077,0,0,-0.2084,-0.2085,0,0,0,0,0,0,0,0,-0.1824,-0.183,-0.1905,-0.1909,-0.1913,-0.1969,-0.1942,-0.1995,-0.2002,-0.1967,-0.2004,-0.2005,-0.2039,-0.2044,-0.2055,-0.2081,-0.2084,-0.2085,-0.2086,-0.2087,-0.2087,0,0,0,0,0,0,0,-0.182,-0.1828,-0.1903,-0.1906,-0.1911,-0.1925,-0.1933,-0.1952,-0.1997,-0.1971,-0.1975,-0.1986,-0.2042,-0.2053,-0.2057,-0.2085,-0.2085,-0.2086,-0.2088,-0.2089,-0.2197,-0.2199,0,0,0,0,0,0,-0.1813,-0.1824,-0.19,-0.1905,-0.1871,-0.1926,-0.1935,-0.1949,-0.1997,-0.2006,-0.1985,-0.1988,-0.2049,-0.2054,-0.206,-0.2142,-0.2087,-0.2089,-0.209,-0.2196,-0.2197,-0.2199,0,0,0,0,0,0,-0.181,-0.1819,-0.1897,-0.1867,-0.1879,-0.1927,-0.1942,-0.1951,-0.1994,-0.2009,-0.2017,-0.2024,-0.205,-0.2057,-0.2109,-0.2142,-0.209,-0.2092,-0.2194,-0.2196,-0.2198,-0.2255,0,0,0,0,0,0,-0.1807,-0.1818,-0.184,-0.1867,-0.188,-0.194,-0.1942,-0.1952,-0.1999,-0.2004,-0.2044,-0.205,-0.2051,-0.2106,-0.2111,-0.2144,-0.2094,-0.2192,-0.2195,-0.2198,-0.2251,-0.2259,-0.2265,0,0,0,0,0,-0.1803,-0.1826,-0.1841,-0.1851,-0.1905,-0.1941,-0.195,-0.1984,-0.2,-0.2025,-0.2057,-0.205,-0.2128,-0.2109,-0.2115,-0.2149,-0.219,-0.2194,-0.2197,-0.2247,-0.2257,-0.2265,0,0,0,0,0,0,-0.1794,-0.1834,-0.1851,-0.1886,-0.1922,-0.1951,-0.198,-0.2003,-0.2047,-0.2062,-0.2072,-0.2081,-0.2137,-0.2137,-0.2116,-0.2189,-0.2157,-0.2162,-0.2193,-0.2202,-0.2209,-0.2199,-0.2095,0,0,0,0,0,-0.1801,-0.183,-0.1867,-0.1898,-0.1919,-0.1956,-0.1981,-0.2008,-0.2043,-0.2065,-0.2094,-0.2124,-0.215,-0.2173,-0.2195,-0.2237,-0.221,-0.2262,-0.2269,-0.2276,-0.2272,-0.2265,-0.2271,-0.2211,-0.2211,-0.2211,0,0,-0.1806,-0.1832,-0.1851,-0.1899,-0.193,-0.1968,-0.1974,-0.2023,-0.2063,-0.2064,-0.2135,-0.2154,-0.2168,-0.2216,-0.2241,-0.2225,-0.2279,-0.228,-0.2285,-0.2278,-0.2269,-0.2275,-0.228,-0.2213,-0.2213,-0.2212,0,0,-0.182,-0.1856,-0.1884,-0.1918,-0.1973,-0.1997,-0.2019,-0.207,-0.2105,-0.2167,-0.2177,-0.2217,-0.2266,-0.2279,-0.2289,-0.235,-0.2317,-0.2364,-0.2395,-0.239,-0.2394,-0.2397,-0.2364,-0.2365,-0.2368,-0.2368,-0.2368,0,-0.1828,-0.1866,-0.1898,-0.1935,-0.1969,-0.2014,-0.2053,-0.2094,-0.216,-0.2186,-0.22,-0.2272,-0.2291,-0.2332,-0.2358,-0.2366,-0.2347,-0.236,-0.2397,-0.24,-0.2403,-0.2368,-0.2367,-0.2372,-0.2371,-0.2371,-0.2371,0,-0.1853,-0.19,-0.192,-0.1981,-0.2021,-0.2065,-0.212,-0.2173,-0.222,-0.2251,-0.2317,-0.2343,-0.2379,-0.2398,-0.2401,-0.2436,-0.241,-0.2405,-0.237,-0.2412,-0.2373,-0.2371,-0.2376,-0.2375,-0.2374,-0.2373,0,0,-0.1824,-0.192,-0.1931,-0.1969,-0.2052,-0.2083,-0.2157,-0.222,-0.2265,-0.2329,-0.2373,-0.243,-0.2442,-0.2454,-0.2464,-0.2468,-0.2475,-0.2452,-0.2451,-0.241,-0.2444,-0.2283,-0.2265,-0.2479,-0.2479,-0.248,-0.2406,0,-0.1836,-0.1907,-0.1955,-0.2031,-0.207,-0.2138,-0.2197,-0.2264,-0.232,-0.2376,-0.2409,-0.2457,-0.2464,-0.2487,-0.2495,-0.2485,-0.2475,-0.2494,-0.2417,-0.2414,-0.2259,-0.2259,-0.2481,-0.2405,-0.2404,-0.2404,-0.2404,0,-0.1835,-0.1886,-0.196,-0.2056,-0.208,-0.2137,-0.223,-0.229,-0.2371,-0.2413,-0.2461,-0.2486,-0.2518,-0.2513,-0.2502,-0.2515,-0.2484,-0.2466,-0.2462,-0.2287,-0.2249,-0.2357,-0.24,-0.24,-0.24,-0.2401,-0.2401,0,-0.1778,-0.1884,-0.1944,-0.198,-0.2095,-0.2146,-0.221,-0.2301,-0.2347,-0.2434,-0.2463,-0.2507,-0.2524,-0.251,-0.2482,-0.2497,-0.2442,-0.2452,-0.227,-0.2258,-0.2402,-0.2399,-0.2425,-0.2425,-0.2425,-0.2425,-0.2426,0,-0.1749,-0.1801,-0.193,-0.1962,-0.2033,-0.2126,-0.2202,-0.2271,-0.2358,-0.2388,-0.2474,-0.2479,-0.2527,-0.2504,-0.2477,-0.2349,-0.2432,-0.2257,-0.2224,-0.2427,-0.2428,-0.2399,-0.2397,-0.2423,-0.2423,-0.2424,-0.2424,0,-0.1668,-0.1759,-0.1832,-0.1965,-0.2009,-0.2058,-0.2184,-0.2222,-0.2326,-0.2364,-0.239,-0.2457,-0.2416,-0.2422,-0.2385,-0.2311,-0.2229,-0.2163,-0.2357,-0.2339,-0.2051,-0.2054,-0.1947,-0.194,-0.1935,-0.193,-0.1927,0,-0.1628,-0.1662,-0.1809,-0.1847,-0.1912,-0.2005,-0.2054,-0.2185,-0.2216,-0.2317,-0.2304,-0.232,-0.2336,-0.2133,-0.2178,-0.2084,-0.2064,-0.2015,-0.2052,-0.2022,-0.2001,-0.2012,-0.2021,-0.1918,-0.1916,-0.1915,-0.1914,0,-0.154,-0.1611,-0.1667,-0.1748,-0.1815,-0.1877,-0.196,-0.1965,-0.2089,-0.2205,-0.2142,-0.2105,-0.2046,-0.2004,-0.1938,-0.1885,-0.2049,-0.1958,-0.197,-0.2004,-0.1986,-0.1973,-0.1989,-0.1895,-0.1898,-0.1899,-0.19,0,-0.1468,-0.1484,-0.1566,-0.1615,-0.1695,-0.1708,-0.178,-0.1798,-0.1843,-0.1961,-0.1929,-0.1945,-0.2011,-0.1896,-0.184,-0.1767,-0.1748,-0.1705,-0.173,-0.1751,-0.1722,-0.1672,-0.1436,0,0,0,0,0,-0.1385,-0.1382,-0.142,-0.1468,-0.1538,-0.1578,-0.1688,-0.1762,-0.1884,-0.1779,-0.1849,-0.1783,-0.1696,-0.1715,-0.1593,-0.1757,-0.1762,-0.1611,-0.1728,-0.1791,-0.1812,-0.1798,0,0,0,0,0,0,-0.1327,-0.1361,-0.1368,-0.1324,-0.1321,-0.1379,-0.1437,-0.1529,-0.1487,-0.1613,-0.1564,-0.1666,-0.16,-0.1713,-0.1546,-0.1552,-0.1588,-0.1639,-0.1634,-0.1778,-0.1798,-0.1815,-0.1808,0,0,0,0,0]},{"header":{"parameterUnit":"m.s-1","parameterCategory":2,"la1":30.2991,"la2":30.254,"lo1":-89.0895,"lo2":-89.0444,"dy":0.0017,"dx":0.0017,"nx":28,"ny":28,"refTime":"2025-11-23T03:00:00:Z","depth":"4","parameterNumber":3,"parameterNumberName":"V-component_of_CURRENTS"},"data":[0,0,0,0,0,0,0,0,0,0,0,0,0,0,0,0,0,0,0,0,0,0,0,0,0,0,0,0,0,0,0,0,0,0,0,0,0,0,0,0,0,0,0,0,0,0,0,0,0,0,0,0,0,0,0,0,0,0,-0.0236,-0.0235,0,-0.0173,-0.0172,-0.0171,-0.0126,-0.0125,-0.0125,-0.0125,-0.0023,-0.0021,-0.0018,0,0,0,0,0,0,0,0,0,0,0,0,0,-0.0278,-0.0278,-0.0236,-0.0235,-0.0234,-0.0173,-0.0172,-0.0171,-0.0126,-0.0125,-0.0125,-0.0125,-0.0024,-0.0021,-0.0018,0,0,0,0,0,0,0,0,0,0,0,0,0,-0.024,-0.0277,-0.0236,-0.0206,-0.0202,-0.0173,-0.0172,-0.0171,-0.0126,-0.0125,-0.0125,-0.0125,-0.0025,-0.0021,-0.0017,-0.0001,0,0,-0.0006,-0.0004,0,0,0,0,0,0,0,0,-0.0243,-0.0239,-0.0211,-0.0208,-0.0204,-0.0158,-0.0149,-0.0112,-0.0126,-0.0153,-0.0125,-0.0125,-0.0066,-0.0059,-0.0046,0.0004,0.0008,-0.0006,-0.0003,-0.0002,-0.0001,0,0,0,0,0,0,0,-0.0245,-0.0241,-0.0209,-0.021,-0.0206,-0.0182,-0.0177,-0.0142,-0.011,-0.0151,-0.0148,-0.0143,-0.0063,-0.005,-0.0043,0.001,-0.0006,-0.0002,-0.0,0.0001,0.009,0.009,0,0,0,0,0,0,-0.0259,-0.0244,-0.0211,-0.0207,-0.0225,-0.0182,-0.0176,-0.0172,-0.0111,-0.0102,-0.0144,-0.0142,-0.0056,-0.0047,-0.0039,-0.0016,-0.0002,0.0002,0.0004,0.009,0.009,0.009,0,0,0,0,0,0,-0.026,-0.0257,-0.0214,-0.0225,-0.0218,-0.0182,-0.0178,-0.0171,-0.0159,-0.0107,-0.0097,-0.0139,-0.0056,-0.0044,-0.0012,-0.0012,0.0004,0.0007,0.009,0.009,0.009,0.0031,0,0,0,0,0,0,-0.0261,-0.0257,-0.0262,-0.0226,-0.0218,-0.0205,-0.0178,-0.017,-0.0157,-0.0154,-0.01,-0.009,-0.0054,-0.0018,-0.0008,-0.0006,0.001,0.009,0.009,0.009,0.0032,0.0029,0.0025,0,0,0,0,0,-0.0263,-0.0273,-0.0263,-0.0259,-0.0225,-0.0205,-0.0199,-0.017,-0.0158,-0.0157,-0.0119,-0.0092,-0.0009,-0.0015,-0.0003,-0.0,0.009,0.009,0.009,0.0034,0.0029,0.0026,0,0,0,0,0,0,-0.0293,-0.0268,-0.0257,-0.0258,-0.0238,-0.0198,-0.0197,-0.0177,-0.0146,-0.0142,-0.0091,-0.0079,-0.005,-0.0017,-0.0024,0.0027,0.0045,0.0048,-0.0001,-0.0005,-0.0009,-0.0022,0.0013,0,0,0,0,0,-0.0304,-0.0305,-0.0274,-0.0277,-0.0269,-0.0235,-0.0224,-0.0205,-0.0172,-0.0159,-0.0121,-0.0079,-0.004,-0.0018,0.0018,0.0045,0.0084,0.0056,0.0052,0.0049,0.0046,0.0106,0.0108,0.0091,0.0091,0.0091,0,0,-0.0317,-0.0303,-0.0304,-0.0284,-0.0266,-0.026,-0.0227,-0.0216,-0.0208,-0.0152,-0.0132,-0.0093,-0.0037,-0.0007,0.0009,0.0021,0.0074,0.0049,0.0046,0.0045,0.0107,0.0108,0.011,0.0091,0.0091,0.0091,0,0,-0.0344,-0.0332,-0.0341,-0.0329,-0.0308,-0.0285,-0.0285,-0.0251,-0.0232,-0.0208,-0.0164,-0.0125,-0.0072,-0.0028,0.0001,0.0001,0.005,0.0011,-0.0012,0.0045,0.0047,0.0049,0.0095,0.0102,0.0013,0.0013,0.0013,0,-0.0362,-0.0367,-0.0341,-0.0347,-0.0342,-0.03,-0.0308,-0.0282,-0.0241,-0.0224,-0.0211,-0.0123,-0.008,-0.0029,-0.003,-0.0007,0.0029,-0.0004,0.004,0.0043,0.0046,0.0093,0.0101,0.0011,0.0011,0.0011,0.0011,0,-0.0391,-0.0398,-0.0404,-0.0396,-0.0387,-0.0388,-0.0352,-0.0338,-0.031,-0.0277,-0.023,-0.0167,-0.0113,-0.0092,-0.0061,-0.0016,0.0002,0.0024,0.0047,0.0044,0.0094,0.0103,0.0006,0.0007,0.0008,0.0009,0,0,-0.0423,-0.0426,-0.0429,-0.0439,-0.0415,-0.0412,-0.0398,-0.037,-0.0359,-0.0308,-0.0282,-0.0211,-0.0173,-0.0137,-0.0087,-0.0035,0.0016,-0.0004,0.0001,0.0035,0.0135,0.0114,0.0123,0.0044,0.0045,0.0047,0.0159,0,-0.0455,-0.0487,-0.0471,-0.0496,-0.0508,-0.0471,-0.0463,-0.043,-0.0391,-0.0355,-0.0275,-0.0232,-0.019,-0.0164,-0.0106,-0.0015,0.0039,-0.0017,0.014,0.0144,0.012,0.0133,0.0051,0.0166,0.0168,0.017,0.0171,0,-0.0487,-0.0506,-0.0542,-0.0552,-0.0553,-0.056,-0.054,-0.0526,-0.0458,-0.0424,-0.036,-0.0295,-0.0209,-0.0176,-0.0021,-0.006,0.0028,0.0101,0.0108,0.0115,0.0141,0.0174,0.0189,0.0188,0.0186,0.0185,0.0184,0,-0.0528,-0.0553,-0.0588,-0.0592,-0.0594,-0.0603,-0.0598,-0.0551,-0.0537,-0.0466,-0.0441,-0.033,-0.0269,-0.0149,-0.0001,-0.0009,0.0172,0.0185,0.0253,0.0253,0.0264,0.0261,0.0297,0.0297,0.0297,0.0297,0.0296,0,-0.0564,-0.0593,-0.0617,-0.0638,-0.0679,-0.0658,-0.0678,-0.0651,-0.0605,-0.0579,-0.0484,-0.0428,-0.0258,-0.0133,-0.0007,0.0149,0.0173,0.025,0.0282,0.0236,0.0228,0.0271,0.0266,0.0301,0.03,0.0299,0.0298,0,-0.0599,-0.0614,-0.0662,-0.0689,-0.0703,-0.0733,-0.0744,-0.0746,-0.0698,-0.0659,-0.0636,-0.049,-0.0327,-0.0157,0.0056,0.0138,0.0291,0.0344,0.0277,0.0303,0.0333,0.0324,0.0421,0.0421,0.0421,0.0422,0.0422,0,-0.0617,-0.0647,-0.0711,-0.0749,-0.0769,-0.0808,-0.0829,-0.0799,-0.0788,-0.0687,-0.0662,-0.0502,-0.039,-0.0102,0.0064,0.0295,0.0327,0.0392,0.0363,0.0325,0.0347,0.0338,0.0329,0.0422,0.0422,0.0422,0.0422,0,-0.0651,-0.068,-0.0721,-0.0804,-0.085,-0.089,-0.0911,-0.0908,-0.0848,-0.0809,-0.0657,-0.0497,-0.0311,-0.0095,0.0085,0.025,0.0337,0.0395,0.0395,0.0368,0.0328,0.0347,0.0338,0.0423,0.0423,0.0423,0.0423,0,-0.0675,-0.0717,-0.0778,-0.0843,-0.0909,-0.0942,-0.0953,-0.0911,-0.0883,-0.0758,-0.0704,-0.049,-0.0354,-0.0116,0.0051,0.0204,0.0235,0.0268,0.0276,0.0277,0.0193,0.0118,0.0179,0,0,0,0,0,-0.0691,-0.0738,-0.0809,-0.0879,-0.0944,-0.0972,-0.0988,-0.0978,-0.0921,-0.0817,-0.0753,-0.0568,-0.0294,-0.0168,-0.0017,0.0025,0.0233,0.0201,0.0267,0.0427,0.0426,0.0348,0,0,0,0,0,0,-0.0703,-0.0774,-0.0808,-0.0888,-0.0937,-0.0993,-0.1002,-0.0967,-0.0894,-0.0813,-0.0658,-0.0554,-0.0286,-0.0374,-0.0017,0.0029,0.0084,0.0339,0.0341,0.0427,0.0426,0.0426,0.0346,0,0,0,0,0]}]]